DW9665 Sarajevo BA current weather conditions

sailwx.info

Wind from 135 at 5 knots gusting 11

Air temperature 15.6° C
Dewpoint -9.4° C

Last reported at 2015-Apr-21 12:47 UTC.
Time now 2015-Apr-21 13:10 UTC

Location: N 43°50' E 018°21'.
View on Google Maps.

See reports from other nearby stations

  
Tides and Currents Weather Stations Pressure Air Temp Water Temp Dewpoint Dewpoint Depression Visibility Wind Speed Wind Dir Waves Ship Positions
date/time (UTC)wind fromknots sea level pressurealtimeterstation pressurevisibilityair tempwater tempwave heightnotes
2015-Apr-21 12:47 135 5 gusting 11 15.6
2015-Apr-21 12:32 180 8 gusting 15 15.0
2015-Apr-21 12:17 292 6 gusting 11 15.6
2015-Apr-21 12:02 338 5 gusting 15 15.6
2015-Apr-21 11:47 292 8 gusting 15 15.0
2015-Apr-21 11:32 090 3 gusting 21 15.0
2015-Apr-21 11:17 180 3 gusting 14 15.0
2015-Apr-21 11:02 270 4 gusting 13 14.4
2015-Apr-21 10:47 270 6 gusting 13 14.4
2015-Apr-21 10:32 338 8 gusting 15 14.4
2015-Apr-21 10:17 292 6 gusting 15 14.4
2015-Apr-21 10:02 022 2 gusting 11 13.9
2015-Apr-21 09:47 045 7 gusting 13 13.3
2015-Apr-21 09:32 292 5 gusting 14 13.9
2015-Apr-21 09:17 135 7 gusting 13 13.3
2015-Apr-21 09:02 292 5 gusting 15 13.3
2015-Apr-21 08:47 270 2 gusting 13 13.3
2015-Apr-21 08:32 315 11 gusting 15 12.8
2015-Apr-21 08:17 270 3 gusting 11 12.8
2015-Apr-21 08:02 045 2 gusting 14 12.2
2015-Apr-21 07:47 292 7 gusting 14 12.2
2015-Apr-21 07:32 112 9 gusting 13 12.2
2015-Apr-21 07:17 338 6 gusting 11 11.7
2015-Apr-21 07:02 068 7 gusting 13 11.1
2015-Apr-21 06:47 180 4 gusting 9 11.7
2015-Apr-21 06:32 270 5 gusting 11 11.7
2015-Apr-21 06:17 315 2 gusting 9 11.7
2015-Apr-21 06:02 338 3 gusting 7 10.6
2015-Apr-21 05:47 338 0 gusting 6 10.6
2015-Apr-21 05:32 292 1 gusting 5 10.6
2015-Apr-21 05:17 338 3 gusting 5 10.0
2015-Apr-21 05:02 338 3 gusting 6 9.4
2015-Apr-21 04:47 022 3 gusting 4 9.4
2015-Apr-21 04:32 338 1 gusting 6 9.4
2015-Apr-21 04:17 315 5 gusting 8 9.4
2015-Apr-21 04:02 338 3 gusting 8 10.0
2015-Apr-21 03:47 338 4 gusting 7 10.0
2015-Apr-21 03:32 180 1 gusting 6 10.0
2015-Apr-21 03:17 315 5 gusting 8 10.6
2015-Apr-21 03:02 338 3 gusting 7 10.6
2015-Apr-21 02:47 10.6
2015-Apr-21 02:32 292 0 gusting 4 10.6
2015-Apr-21 02:17 180 10.6
2015-Apr-21 02:02 10.6
2015-Apr-21 01:47 292 3 gusting 6 10.6
2015-Apr-21 01:32 292 10.6
2015-Apr-21 01:17 292 10.6
2015-Apr-21 01:02 292 0 gusting 4 10.6
2015-Apr-21 00:47 270 10.6
2015-Apr-21 00:32 292 1 gusting 3 10.6
2015-Apr-21 00:17 270 1 gusting 3 10.6
2015-Apr-21 00:02 270 0 gusting 5 10.6
2015-Apr-20 23:47 292 2 gusting 6 10.6
2015-Apr-20 23:32 270 1 gusting 3 11.1
2015-Apr-20 23:17 292 0 gusting 2 11.1
2015-Apr-20 23:02 270 0 gusting 2 11.1
2015-Apr-20 22:47 022 0 gusting 3 11.1
2015-Apr-20 22:32 270 11.1
2015-Apr-20 22:17 270 11.1
2015-Apr-20 22:02 338 11.1
2015-Apr-20 21:47 292 11.1
2015-Apr-20 21:32 270 11.1
2015-Apr-20 21:17 11.1
2015-Apr-20 21:02 270 2 gusting 6 11.1
2015-Apr-20 20:47 270 0 gusting 1 11.7
2015-Apr-20 20:32 270 11.7
2015-Apr-20 20:17 270 0 gusting 2 11.7
2015-Apr-20 20:02 292 0 gusting 5 11.7
2015-Apr-20 19:47 180 11.7
2015-Apr-20 19:32 292 0 gusting 3 11.7
2015-Apr-20 19:17 270 0 gusting 5 11.7
2015-Apr-20 19:02 270 12.2
2015-Apr-20 18:47 12.2
2015-Apr-20 18:32 292 1 gusting 7 12.2
2015-Apr-20 18:17 338 2 gusting 9 12.2
2015-Apr-20 18:02 338 3 gusting 9 12.8
2015-Apr-20 17:47 338 5 gusting 11 13.3
2015-Apr-20 17:32 338 4 gusting 9 13.3
2015-Apr-20 17:17 338 4 gusting 11 13.9
2015-Apr-20 17:02 338 6 gusting 13 13.9
2015-Apr-20 16:47 292 6 gusting 13 14.4
2015-Apr-20 16:32 338 9 gusting 14 14.4
2015-Apr-20 16:17 338 6 gusting 9 15.6
2015-Apr-20 16:02 180 4 gusting 9 15.6
2015-Apr-20 15:47 135 2 gusting 9 15.6
2015-Apr-20 15:32 180 2 gusting 6 16.1
2015-Apr-20 15:17 270 1 gusting 9 16.1
2015-Apr-20 15:02 338 6 gusting 11 15.6
2015-Apr-20 14:47 270 1 gusting 11 15.6
2015-Apr-20 14:32 270 5 gusting 10 15.6
2015-Apr-20 14:17 292 1 gusting 14 15.6
2015-Apr-20 14:02 292 3 gusting 10 15.6
2015-Apr-20 13:47 270 3 gusting 10 15.6
2015-Apr-20 13:32 292 0 gusting 10 15.0
2015-Apr-20 13:17 270 3 gusting 7 15.0
2015-Apr-20 13:02 338 5 gusting 12 14.4
2015-Apr-20 12:47 180 3 gusting 10 14.4
2015-Apr-20 12:32 270 1 gusting 12 14.4
2015-Apr-20 12:17 180 5 gusting 9 13.3
2015-Apr-20 12:02 270 6 gusting 7 13.3
2015-Apr-20 11:47 12.8
2015-Apr-20 11:32 180 3 gusting 7 12.8
2015-Apr-20 11:17 292 4 gusting 9 12.2
2015-Apr-20 11:02 270 3 gusting 6 12.2
2015-Apr-20 10:47 270 3 gusting 11 11.7
2015-Apr-20 10:32 045 3 gusting 9 11.7
2015-Apr-20 10:17 180 2 gusting 4 11.7
2015-Apr-20 10:02 270 2 gusting 6 11.1
2015-Apr-20 09:47 158 2 gusting 6 10.6
2015-Apr-20 09:32 270 0 gusting 6 10.0
2015-Apr-20 09:17 270 1 gusting 6 10.0
2015-Apr-20 09:02 292 1 gusting 5 10.0
2015-Apr-20 08:47 022 9.4
2015-Apr-20 08:32 270 2 gusting 4 8.9
2015-Apr-20 08:17 180 0 gusting 2 9.4
2015-Apr-20 08:02 270 7.8
2015-Apr-20 07:47 292 1 gusting 3 7.8
2015-Apr-20 07:32 270 1 gusting 2 7.8
2015-Apr-20 07:17 270 6.7
2015-Apr-20 07:02 292 1 gusting 2 6.7
2015-Apr-20 06:47 180 5.0
2015-Apr-20 06:32 292 5.0
2015-Apr-20 06:17 338 1 gusting 3 3.9
2015-Apr-20 06:02 270 1 gusting 3 3.3
2015-Apr-20 05:47 270 0 gusting 2 3.9
2015-Apr-20 05:32 292 2.8
2015-Apr-20 05:17 270 0 gusting 2 2.2
2015-Apr-20 05:02 270 2.2
2015-Apr-20 04:47 338 0 gusting 1 2.2
2015-Apr-20 04:32 158 1.7
2015-Apr-20 04:17 112 1.1
2015-Apr-20 04:02 270 0 gusting 1 1.1
2015-Apr-20 03:47 270 1.1
2015-Apr-20 03:32 270 1 gusting 2 1.1
2015-Apr-20 03:17 180 0 gusting 1 1.7
2015-Apr-20 02:17 270 0 gusting 1 2.2
2015-Apr-20 02:02 270 2.2
2015-Apr-20 01:47 270 0 gusting 2 2.2
2015-Apr-20 01:32 292 0 gusting 1 2.8
2015-Apr-20 01:17 158 2.8
2015-Apr-20 01:02 158 2.8
2015-Apr-20 00:47 180 1 gusting 2 3.3
2015-Apr-20 00:32 180 1 gusting 2 3.3
2015-Apr-20 00:17 270 1 gusting 2 3.3
2015-Apr-20 00:02 270 1 gusting 2 3.9
2015-Apr-19 23:47 270 3.9
2015-Apr-19 23:32 270 1 gusting 2 4.4
2015-Apr-19 23:17 180 4.4
2015-Apr-19 23:02 180 1 gusting 1 4.4
2015-Apr-19 22:47 180 4.4
2015-Apr-19 22:32 180 5.0
2015-Apr-19 22:17 270 5.6
2015-Apr-19 22:02 270 5.6
2015-Apr-19 21:47 022 0 gusting 3 6.1
2015-Apr-19 21:32 315 0 gusting 2 6.7
2015-Apr-19 21:17 270 6.7
2015-Apr-19 21:02 7.2
2015-Apr-19 20:47 180 1 gusting 3 7.2
2015-Apr-19 20:32 315 2 gusting 3 7.8
2015-Apr-19 20:17 270 0 gusting 3 7.8
2015-Apr-19 20:02 7.8
2015-Apr-19 19:47 090 8.3
2015-Apr-19 19:32 068 2 gusting 8 8.3
2015-Apr-19 19:17 022 0 gusting 4 8.3
2015-Apr-19 19:02 045 2 gusting 3 8.9
2015-Apr-19 18:47 158 8.9
2015-Apr-19 18:32 9.4
2015-Apr-19 18:17 9.4
2015-Apr-19 18:02 338 3 gusting 8 10.0
2015-Apr-19 17:47 270 1 gusting 6 10.6
2015-Apr-19 17:32 11.1
2015-Apr-19 17:17 11.7
2015-Apr-19 17:02 338 1 gusting 8 12.2
2015-Apr-19 16:47 315 6 gusting 8 12.2
2015-Apr-19 16:32 292 5 gusting 9 12.8
2015-Apr-19 16:17 13.3
2015-Apr-19 16:02 068 12.8
2015-Apr-19 15:47 13.3
2015-Apr-19 15:32 315 3 gusting 5 13.3
2015-Apr-19 15:17 045 0 gusting 4 13.3
2015-Apr-19 15:02 158 2 gusting 3 13.3
2015-Apr-19 14:47 090 0 gusting 2 13.3
2015-Apr-19 14:32 292 1 gusting 8 12.8
2015-Apr-19 14:17 270 2 gusting 5 12.8
2015-Apr-19 14:02 068 0 gusting 8 12.8
2015-Apr-19 13:47 090 6 gusting 8 12.8
2015-Apr-19 13:32 090 3 gusting 6 12.2
2015-Apr-19 13:17 068 11.7
2015-Apr-19 13:02 068 3 gusting 5 12.2